Вернуться в каталог

TITAN 3C TRANSTAGE DEB

АктивенMEO
NORAD 43283·DEBRIS·🇺🇸 United States

Запущен Feb 9, 1969 с Cape Canaveral Space Force Station

Loading…

Ближайшие Пролёты (ближайшие 24 часа)

TLE

СвежийSource: Space-Track

Эпоха: Sep 13, 2026, 15:48 UTC

1 43283U 69013D   26256.65892130 -.00000165  00000-0  00000-0 0  9997
2 43283   1.6882  88.3658 0344160 147.0665 216.0977  0.93096625 28914

Отслеживайте TITAN 3C TRANSTAGE DEB в реальном времени с AllMySat

Download on the App Store